CDT,Max TemperatureF,Mean TemperatureF,Min TemperatureF,Max Dew PointF,MeanDew PointF,Min DewpointF,Max Humidity, Mean Humidity, Min Humidity, Max Sea Level PressureIn, Mean Sea Level PressureIn, Min Sea Level PressureIn, Max VisibilityMiles, Mean VisibilityMiles, Min VisibilityMiles, Max Wind SpeedMPH, Mean Wind SpeedMPH, Max Gust SpeedMPH,PrecipitationIn, CloudCover, Events, WindDirDegrees
2012-10-1,75,61,47,54,50,45,100,73,46,29.99,29.94,29.89,10,10,3,20,5,32,0.00,3,,322
2012-10-2,73,56,41,46,40,30,99,58,21,30.02,29.96,29.88,10,10,8,10,5,,0.00,0,,314
2012-10-3,80,58,38,48,43,38,100,59,26,29.95,29.89,29.81,10,10,10,18,6,25,0.00,1,,175
2012-10-4,65,56,48,52,41,36,77,63,45,30.31,30.21,29.94,10,10,10,20,9,29,0.00,6,Rain,352
2012-10-5,52,44,39,37,33,29,91,64,42,30.35,30.32,30.28,10,7,1,16,7,24,0.00,6,,24
2012-10-6,45,42,39,39,31,22,97,69,40,30.43,30.36,30.33,10,7,2,12,3,,0.00,6,,2
2012-10-7,55,42,28,34,30,28,100,67,36,30.38,30.28,30.16,10,10,10,13,6,22,0.00,1,,235
2012-10-8,70,52,36,36,34,31,89,53,27,30.14,30.01,29.89,10,10,10,20,8,26,0.00,0,,203
2012-10-9,62,51,37,43,36,25,74,55,35,30.18,29.97,29.86,10,10,8,18,11,23,0.00,1,,255
2012-10-10,66,46,29,32,30,27,99,57,24,30.31,30.21,30.10,10,10,9,14,4,,0.00,0,,180
2012-10-11,77,62,47,53,42,32,61,50,41,30.19,30.06,29.97,10,10,6,22,7,29,0.00,4,,121
2012-10-12,62,54,48,60,45,26,100,77,38,30.28,30.15,29.99,10,8,2,23,11,31,0.29,8,Rain-Thunderstorm,83
2012-10-13,76,68,60,73,66,61,100,97,78,29.98,29.77,29.55,10,10,4,20,11,26,0.19,6,Rain-Thunderstorm,164
2012-10-14,72,62,48,61,54,40,100,83,30,30.02,29.75,29.56,10,10,8,16,6,24,0.04,4,Rain-Thunderstorm,322
2012-10-15,81,62,44,53,48,44,100,68,30,30.01,29.91,29.73,10,10,6,13,2,17,0.00,0,,222
2012-10-16,79,68,56,55,47,44,73,49,30,29.70,29.59,29.45,10,10,10,17,11,23,0.00,1,,224
2012-10-17,67,57,47,58,42,23,100,57,24,29.75,29.56,29.39,10,10,10,22,9,36,0.03,3,Rain,285
2012-10-18,61,52,45,33,27,21,46,36,24,29.79,29.75,29.70,10,10,10,23,12,39,0.00,4,,287
2012-10-19,61,52,40,42,36,32,97,56,43,29.88,29.82,29.77,10,10,10,18,12,32,0.00,5,,314
2012-10-20,79,56,34,48,41,34,100,65,26,29.84,29.75,29.65,10,10,10,10,3,,0.00,0,,46
2012-10-21,81,64,48,68,60,48,100,78,62,29.73,29.69,29.64,10,10,10,18,6,25,0.00,1,,138
2012-10-22,71,63,53,69,62,54,100,95,71,29.82,29.75,29.63,10,9,4,16,9,,0.00,4,,216
2012-10-23,86,68,51,67,58,51,100,85,36,29.81,29.74,29.61,10,7,1,23,5,31,0.00,3,,162
2012-10-24,82,71,61,68,63,57,99,77,54,29.73,29.67,29.62,10,10,10,21,12,30,0.00,4,,199
2012-10-25,68,52,37,66,43,28,100,88,47,30.38,29.89,29.58,10,9,4,22,12,46,0.21,7,Rain,343
2012-10-26,46,36,27,27,25,24,96,64,45,30.57,30.48,30.40,10,10,10,16,9,17,0.00,2,,358
2012-10-27,48,34,23,30,26,23,99,72,42,30.47,30.38,30.28,10,10,10,8,2,,0.00,3,,95
2012-10-28,56,40,25,32,27,24,99,61,34,30.37,30.29,30.23,10,10,10,14,5,,0.00,3,,114
2012-10-29,66,54,43,32,30,27,57,42,27,30.25,30.16,30.06,10,10,10,22,12,28,0.00,3,,163
2012-10-30,64,52,38,35,33,30,80,53,32,30.06,30.01,29.96,10,10,10,13,6,21,0.00,2,,55
2012-10-31,66,49,33,40,34,32,97,67,32,30.12,30.06,29.99,10,10,10,6,2,,0.00,1,,30